Time,TemperatureF,DewpointF,PressureIn,WindDirection,WindDirectionDegrees,WindSpeedMPH,WindSpeedGustMPH,Humidity,HourlyPrecipIn,Conditions,Clouds,dailyrainin,SoftwareType,DateUTC
2013-02-28 00:01:00,28.0,26.0,26.82,ENE,78,0.0,0.0,93,0.00,,,0.02,,2013-02-28 07:01:00,
2013-02-28 00:11:00,28.0,26.0,26.82,ENE,78,0.0,0.0,93,0.00,,,0.02,,2013-02-28 07:11:00,
2013-02-28 00:21:00,28.0,26.0,26.82,ENE,78,0.0,0.0,93,0.00,,,0.02,,2013-02-28 07:21:00,
2013-02-28 00:31:00,28.0,26.0,26.83,East,97,0.0,1.0,93,0.00,,,0.02,,2013-02-28 07:31:00,
2013-02-28 00:41:00,28.0,26.0,26.83,East,97,0.0,1.0,93,0.00,,,0.02,,2013-02-28 07:41:00,
2013-02-28 00:51:00,28.0,26.0,26.83,East,97,0.0,1.0,93,0.00,,,0.02,,2013-02-28 07:51:00,
2013-02-28 01:01:00,29.0,27.0,26.82,ESE,109,0.0,0.0,92,0.00,,,0.02,,2013-02-28 08:01:00,
2013-02-28 01:11:00,29.0,27.0,26.82,ESE,109,0.0,0.0,92,0.00,,,0.02,,2013-02-28 08:11:00,
2013-02-28 01:21:00,29.0,27.0,26.82,ESE,109,0.0,0.0,93,0.00,,,0.02,,2013-02-28 08:21:00,
2013-02-28 01:32:00,29.0,27.0,26.81,ESE,111,0.0,0.0,93,0.00,,,0.02,,2013-02-28 08:32:00,
2013-02-28 01:41:00,29.0,27.0,26.81,ESE,111,0.0,0.0,93,0.00,,,0.02,,2013-02-28 08:41:00,
2013-02-28 01:52:00,29.0,27.0,26.81,East,84,0.0,0.0,92,0.00,,,0.02,,2013-02-28 08:52:00,
2013-02-28 02:03:00,29.0,27.0,26.81,East,83,0.0,0.0,93,0.00,,,0.02,,2013-02-28 09:03:00,
2013-02-28 02:11:00,29.0,27.0,26.81,East,83,0.0,0.0,93,0.00,,,0.02,,2013-02-28 09:11:00,
2013-02-28 02:21:00,29.0,27.0,26.81,East,83,0.0,0.0,93,0.00,,,0.02,,2013-02-28 09:21:00,
2013-02-28 02:31:00,29.0,27.0,26.81,East,83,0.0,0.0,93,0.00,,,0.02,,2013-02-28 09:31:00,
2013-02-28 02:41:00,29.0,27.0,26.81,East,83,0.0,0.0,93,0.00,,,0.02,,2013-02-28 09:41:00,
2013-02-28 02:52:00,29.0,27.0,26.81,ESE,112,0.0,0.0,92,0.00,,,0.02,,2013-02-28 09:52:00,
2013-02-28 03:01:00,29.0,26.0,26.81,ESE,119,2.0,10.0,88,0.00,,,0.02,,2013-02-28 10:01:00,
2013-02-28 03:11:00,29.0,26.0,26.81,ESE,119,2.0,10.0,88,0.00,,,0.02,,2013-02-28 10:11:00,
2013-02-28 03:21:00,29.0,26.0,26.81,ESE,119,2.0,10.0,88,0.00,,,0.02,,2013-02-28 10:21:00,
2013-02-28 03:31:00,30.0,27.0,26.81,East,91,0.0,0.0,89,0.00,,,0.02,,2013-02-28 10:31:00,
2013-02-28 03:41:00,30.0,27.0,26.81,East,91,0.0,0.0,89,0.00,,,0.02,,2013-02-28 10:41:00,
2013-02-28 03:52:00,30.0,27.0,26.81,ESE,108,0.0,1.0,88,0.00,,,0.02,,2013-02-28 10:52:00,
2013-02-28 04:01:00,31.0,28.0,26.81,ESE,118,0.0,1.0,89,0.00,,,0.02,,2013-02-28 11:01:00,
2013-02-28 04:11:00,31.0,28.0,26.81,ESE,118,0.0,1.0,89,0.00,,,0.02,,2013-02-28 11:11:00,
2013-02-28 04:21:00,31.0,28.0,26.81,ESE,118,0.0,1.0,89,0.00,,,0.02,,2013-02-28 11:21:00,
2013-02-28 04:32:00,31.0,29.0,26.80,East,101,0.0,2.0,92,0.00,,,0.02,,2013-02-28 11:32:00,
2013-02-28 04:41:00,31.0,29.0,26.80,East,101,0.0,2.0,92,0.00,,,0.02,,2013-02-28 11:41:00,
2013-02-28 04:52:00,31.0,29.0,26.80,East,101,0.0,2.0,92,0.00,,,0.02,,2013-02-28 11:52:00,
2013-02-28 05:01:00,31.0,29.0,26.80,East,101,0.0,2.0,92,0.00,,,0.02,,2013-02-28 12:01:00,
2013-02-28 05:11:00,31.0,29.0,26.80,East,101,0.0,2.0,92,0.00,,,0.02,,2013-02-28 12:11:00,
2013-02-28 05:21:00,31.0,29.0,26.80,ENE,78,0.0,2.0,92,0.00,,,0.02,,2013-02-28 12:21:00,
2013-02-28 05:32:00,31.0,29.0,26.81,East,97,0.0,0.0,91,0.00,,,0.02,,2013-02-28 12:32:00,
2013-02-28 05:42:00,31.0,29.0,26.81,East,97,0.0,0.0,91,0.00,,,0.02,,2013-02-28 12:42:00,
2013-02-28 05:52:00,31.0,28.0,26.81,SE,134,0.0,3.0,90,0.00,,,0.02,,2013-02-28 12:52:00,
2013-02-28 06:01:00,31.0,29.0,26.82,SSE,157,2.0,5.0,91,0.00,,,0.02,,2013-02-28 13:01:00,
2013-02-28 06:11:00,31.0,29.0,26.82,SSE,157,2.0,5.0,91,0.00,,,0.02,,2013-02-28 13:11:00,
2013-02-28 06:21:00,30.0,28.0,26.82,ESE,105,1.0,3.0,93,0.00,,,0.02,,2013-02-28 13:21:00,
2013-02-28 06:31:00,30.0,28.0,26.83,SSE,148,0.0,3.0,93,0.00,,,0.02,,2013-02-28 13:31:00,
2013-02-28 06:41:00,30.0,28.0,26.83,SSE,148,0.0,3.0,93,0.00,,,0.02,,2013-02-28 13:41:00,
2013-02-28 06:52:00,31.0,29.0,26.83,ESE,121,0.0,1.0,94,0.00,,,0.02,,2013-02-28 13:52:00,
2013-02-28 07:01:00,31.0,29.0,26.83,ESE,121,0.0,1.0,94,0.00,,,0.02,,2013-02-28 14:01:00,
2013-02-28 07:11:00,31.0,29.0,26.83,ESE,121,0.0,1.0,94,0.00,,,0.02,,2013-02-28 14:11:00,
2013-02-28 07:21:00,31.0,30.0,26.84,ESE,120,0.0,0.0,96,0.00,,,0.02,,2013-02-28 14:21:00,
2013-02-28 07:31:00,31.0,30.0,26.84,ESE,106,0.0,0.0,96,0.00,,,0.02,,2013-02-28 14:31:00,
2013-02-28 07:42:00,31.0,30.0,26.84,ESE,106,0.0,0.0,96,0.00,,,0.02,,2013-02-28 14:42:00,
2013-02-28 07:52:00,31.0,30.0,26.84,East,94,0.0,0.0,96,0.00,,,0.02,,2013-02-28 14:52:00,
2013-02-28 08:01:00,31.0,30.0,26.85,ESE,105,0.0,0.0,95,0.00,,,0.02,,2013-02-28 15:01:00,
2013-02-28 08:11:00,31.0,30.0,26.85,ESE,105,0.0,0.0,95,0.00,,,0.02,,2013-02-28 15:11:00,
2013-02-28 08:21:00,31.0,30.0,26.85,East,98,0.0,0.0,96,0.00,,,0.02,,2013-02-28 15:21:00,
2013-02-28 08:31:00,31.0,30.0,26.85,ESE,104,0.0,0.0,96,0.00,,,0.02,,2013-02-28 15:31:00,
2013-02-28 08:41:00,31.0,30.0,26.85,ESE,104,0.0,0.0,96,0.00,,,0.02,,2013-02-28 15:41:00,
2013-02-28 08:52:00,32.0,31.0,26.85,East,92,0.0,0.0,95,0.00,,,0.02,,2013-02-28 15:52:00,
2013-02-28 09:01:00,32.0,31.0,26.85,East,92,0.0,0.0,95,0.00,,,0.02,,2013-02-28 16:01:00,
2013-02-28 09:11:00,32.0,31.0,26.85,East,92,0.0,0.0,95,0.00,,,0.02,,2013-02-28 16:11:00,
2013-02-28 09:21:00,32.0,31.0,26.86,SSE,154,0.0,0.0,95,0.00,,,0.02,,2013-02-28 16:21:00,
2013-02-28 09:31:00,32.0,31.0,26.86,SSE,154,0.0,0.0,95,0.00,,,0.02,,2013-02-28 16:31:00,
2013-02-28 09:42:00,32.0,31.0,26.86,SSE,154,0.0,0.0,95,0.00,,,0.02,,2013-02-28 16:42:00,
2013-02-28 09:52:00,33.0,31.0,26.87,ESE,106,0.0,0.0,93,0.00,,,0.02,,2013-02-28 16:52:00,
2013-02-28 10:01:00,33.0,31.0,26.88,East,98,0.0,0.0,93,0.00,,,0.02,,2013-02-28 17:01:00,
2013-02-28 10:11:00,34.0,32.0,26.88,East,100,0.0,0.0,93,0.00,,,0.03,,2013-02-28 17:11:00,
2013-02-28 10:21:00,34.0,32.0,26.88,East,100,0.0,0.0,93,0.00,,,0.03,,2013-02-28 17:21:00,
2013-02-28 10:31:00,34.0,31.0,26.88,ESE,114,0.0,2.0,88,0.00,,,0.03,,2013-02-28 17:31:00,
2013-02-28 10:41:00,34.0,31.0,26.88,ESE,114,0.0,2.0,88,0.00,,,0.03,,2013-02-28 17:41:00,
2013-02-28 10:52:00,35.0,31.0,26.89,ESE,110,0.0,4.0,86,0.00,,,0.03,,2013-02-28 17:52:00,
2013-02-28 11:01:00,36.0,31.0,26.88,SE,136,1.0,4.0,83,0.00,,,0.03,,2013-02-28 18:01:00,
2013-02-28 11:11:00,36.0,31.0,26.88,SE,136,1.0,4.0,83,0.00,,,0.03,,2013-02-28 18:11:00,
2013-02-28 11:21:00,37.0,31.0,26.88,ESE,108,1.0,4.0,80,0.00,,,0.03,,2013-02-28 18:21:00,
2013-02-28 11:31:00,37.0,31.0,26.87,East,88,2.0,6.0,78,0.00,,,0.04,,2013-02-28 18:31:00,
2013-02-28 11:41:00,37.0,31.0,26.87,East,88,2.0,6.0,78,0.00,,,0.04,,2013-02-28 18:41:00,
2013-02-28 11:52:00,37.0,31.0,26.87,ESE,113,1.0,4.0,79,0.00,,,0.04,,2013-02-28 18:52:00,
2013-02-28 12:01:00,38.0,31.0,26.88,East,101,1.0,5.0,77,0.00,,,0.04,,2013-02-28 19:01:00,
2013-02-28 12:11:00,38.0,31.0,26.88,East,101,1.0,5.0,77,0.00,,,0.04,,2013-02-28 19:11:00,
2013-02-28 12:21:00,38.0,31.0,26.89,South,190,0.0,1.0,77,0.00,,,0.04,,2013-02-28 19:21:00,
2013-02-28 12:31:00,39.0,32.0,26.89,South,172,0.0,3.0,75,0.00,,,0.04,,2013-02-28 19:31:00,
2013-02-28 12:41:00,39.0,32.0,26.89,South,172,0.0,3.0,75,0.00,,,0.04,,2013-02-28 19:41:00,
2013-02-28 12:51:00,39.0,32.0,26.89,South,186,1.0,3.0,75,0.00,,,0.04,,2013-02-28 19:51:00,
2013-02-28 13:01:00,39.0,31.0,26.89,SSE,166,0.0,6.0,73,0.00,,,0.03,,2013-02-28 20:01:00,
2013-02-28 13:11:00,39.0,31.0,26.89,SSE,166,0.0,6.0,73,0.00,,,0.03,,2013-02-28 20:11:00,
2013-02-28 13:21:00,39.0,31.0,26.89,SSE,166,0.0,6.0,73,0.00,,,0.03,,2013-02-28 20:21:00,
2013-02-28 13:31:00,39.0,31.0,26.88,SE,128,2.0,5.0,72,0.00,,,0.03,,2013-02-28 20:31:00,
2013-02-28 13:42:00,39.0,31.0,26.88,SE,128,2.0,5.0,72,0.00,,,0.03,,2013-02-28 20:42:00,
2013-02-28 13:52:00,39.0,31.0,26.88,ESE,109,2.0,6.0,72,0.00,,,0.03,,2013-02-28 20:52:00,
2013-02-28 14:01:00,40.0,31.0,26.88,SSE,165,1.0,4.0,70,0.00,,,0.03,,2013-02-28 21:01:00,
2013-02-28 14:11:00,40.0,31.0,26.88,SSE,165,1.0,4.0,70,0.00,,,0.03,,2013-02-28 21:11:00,
2013-02-28 14:22:00,40.0,30.0,26.87,ESE,107,0.0,4.0,68,0.00,,,0.03,,2013-02-28 21:22:00,
2013-02-28 14:31:00,40.0,30.0,26.87,ESE,107,0.0,4.0,68,0.00,,,0.03,,2013-02-28 21:31:00,
2013-02-28 14:41:00,40.0,30.0,26.87,ESE,107,0.0,4.0,68,0.00,,,0.03,,2013-02-28 21:41:00,
2013-02-28 14:51:00,40.0,30.0,26.87,SSE,153,0.0,3.0,68,0.00,,,0.03,,2013-02-28 21:51:00,
2013-02-28 15:01:00,40.0,30.0,26.87,ENE,72,0.0,2.0,67,0.00,,,0.03,,2013-02-28 22:01:00,
2013-02-28 15:11:00,40.0,30.0,26.87,ENE,72,0.0,2.0,67,0.00,,,0.03,,2013-02-28 22:11:00,
2013-02-28 15:21:00,41.0,30.0,26.88,SE,134,0.0,1.0,65,0.00,,,0.03,,2013-02-28 22:21:00,
2013-02-28 15:31:00,41.0,30.0,26.88,SE,132,0.0,2.0,65,0.00,,,0.03,,2013-02-28 22:31:00,
2013-02-28 15:41:00,41.0,30.0,26.88,SE,132,0.0,2.0,65,0.00,,,0.03,,2013-02-28 22:41:00,
2013-02-28 15:52:00,41.0,31.0,26.88,SE,126,0.0,1.0,66,0.00,,,0.02,,2013-02-28 22:52:00,
2013-02-28 16:01:00,41.0,31.0,26.88,SE,126,0.0,1.0,66,0.00,,,0.02,,2013-02-28 23:01:00,
2013-02-28 16:11:00,41.0,31.0,26.88,SE,126,0.0,1.0,66,0.00,,,0.02,,2013-02-28 23:11:00,
2013-02-28 16:21:00,41.0,31.0,26.88,East,87,0.0,2.0,66,0.00,,,0.02,,2013-02-28 23:21:00,
2013-02-28 16:31:00,41.0,31.0,26.88,South,182,0.0,3.0,66,0.00,,,0.02,,2013-02-28 23:31:00,
2013-02-28 16:41:00,41.0,31.0,26.88,South,182,0.0,3.0,66,0.00,,,0.02,,2013-02-28 23:41:00,
2013-02-28 16:52:00,40.0,30.0,26.88,SE,127,0.0,0.0,68,0.00,,,0.02,,2013-02-28 23:52:00,
2013-02-28 17:01:00,40.0,31.0,26.88,ESE,119,0.0,0.0,71,0.00,,,0.02,,2013-03-01 00:01:00,
2013-02-28 17:11:00,40.0,31.0,26.88,ESE,119,0.0,0.0,71,0.00,,,0.02,,2013-03-01 00:11:00,
2013-02-28 17:22:00,38.0,31.0,26.89,East,101,0.0,1.0,76,0.00,,,0.02,,2013-03-01 00:22:00,
2013-02-28 17:32:00,38.0,31.0,26.89,East,101,0.0,1.0,76,0.00,,,0.02,,2013-03-01 00:32:00,
2013-02-28 17:41:00,38.0,31.0,26.89,East,101,0.0,1.0,76,0.00,,,0.02,,2013-03-01 00:41:00,
2013-02-28 17:52:00,37.0,33.0,26.88,ESE,113,0.0,1.0,84,0.00,,,0.02,,2013-03-01 00:52:00,
2013-02-28 18:01:00,37.0,33.0,26.88,ESE,113,0.0,1.0,84,0.00,,,0.02,,2013-03-01 01:01:00,
2013-02-28 18:11:00,37.0,33.0,26.88,ESE,113,0.0,1.0,84,0.00,,,0.02,,2013-03-01 01:11:00,
2013-02-28 18:21:00,36.0,33.0,26.87,East,91,0.0,0.0,88,0.00,,,0.02,,2013-03-01 01:21:00,
2013-02-28 18:31:00,35.0,32.0,26.87,East,91,0.0,1.0,89,0.00,,,0.02,,2013-03-01 01:31:00,
2013-02-28 18:42:00,35.0,32.0,26.87,East,91,0.0,1.0,89,0.00,,,0.02,,2013-03-01 01:42:00,
2013-02-28 18:52:00,35.0,32.0,26.87,East,81,0.0,0.0,90,0.00,,,0.02,,2013-03-01 01:52:00,
2013-02-28 19:01:00,34.0,32.0,26.87,ESE,118,0.0,0.0,92,0.00,,,0.02,,2013-03-01 02:01:00,
2013-02-28 19:11:00,34.0,32.0,26.87,ESE,118,0.0,0.0,92,0.00,,,0.02,,2013-03-01 02:11:00,
2013-02-28 19:21:00,35.0,33.0,26.88,East,96,0.0,1.0,91,0.00,,,0.02,,2013-03-01 02:21:00,
2013-02-28 19:31:00,35.0,32.0,26.88,SE,126,0.0,2.0,89,0.00,,,0.02,,2013-03-01 02:31:00,
2013-02-28 19:42:00,35.0,32.0,26.88,SE,126,0.0,2.0,89,0.00,,,0.02,,2013-03-01 02:42:00,
2013-02-28 19:52:00,35.0,32.0,26.87,East,85,0.0,3.0,90,0.00,,,0.02,,2013-03-01 02:52:00,
2013-02-28 20:01:00,35.0,32.0,26.87,East,85,0.0,3.0,90,0.00,,,0.02,,2013-03-01 03:01:00,
2013-02-28 20:11:00,35.0,32.0,26.87,East,85,0.0,3.0,90,0.00,,,0.02,,2013-03-01 03:11:00,
2013-02-28 20:21:00,34.0,32.0,26.87,ESE,110,0.0,1.0,92,0.00,,,0.02,,2013-03-01 03:21:00,
2013-02-28 20:32:00,34.0,32.0,26.87,ESE,110,0.0,0.0,91,0.00,,,0.02,,2013-03-01 03:32:00,
2013-02-28 20:42:00,34.0,32.0,26.87,ESE,110,0.0,0.0,91,0.00,,,0.02,,2013-03-01 03:42:00,
2013-02-28 20:52:00,34.0,32.0,26.87,ESE,110,0.0,0.0,91,0.00,,,0.02,,2013-03-01 03:52:00,
2013-02-28 21:01:00,34.0,32.0,26.88,East,93,0.0,1.0,93,0.00,,,0.02,,2013-03-01 04:01:00,
2013-02-28 21:11:00,34.0,32.0,26.88,East,93,0.0,1.0,93,0.00,,,0.02,,2013-03-01 04:11:00,
2013-02-28 21:21:00,34.0,32.0,26.88,ENE,69,0.0,0.0,93,0.00,,,0.02,,2013-03-01 04:21:00,
2013-02-28 21:31:00,34.0,32.0,26.87,ESE,113,0.0,2.0,94,0.00,,,0.02,,2013-03-01 04:31:00,
2013-02-28 21:41:00,34.0,32.0,26.87,ESE,113,0.0,2.0,94,0.00,,,0.02,,2013-03-01 04:41:00,
2013-02-28 21:51:00,34.0,32.0,26.86,East,84,0.0,0.0,93,0.00,,,0.02,,2013-03-01 04:51:00,
2013-02-28 22:01:00,34.0,32.0,26.86,ESE,105,0.0,0.0,93,0.00,,,0.02,,2013-03-01 05:01:00,
2013-02-28 22:11:00,34.0,32.0,26.86,ESE,105,0.0,0.0,93,0.00,,,0.02,,2013-03-01 05:11:00,
2013-02-28 22:22:00,34.0,32.0,26.87,ESE,105,0.0,0.0,93,0.00,,,0.02,,2013-03-01 05:22:00,
2013-02-28 22:32:00,34.0,32.0,26.87,East,86,0.0,0.0,93,0.00,,,0.02,,2013-03-01 05:32:00,
2013-02-28 22:41:00,34.0,32.0,26.87,East,86,0.0,0.0,93,0.00,,,0.02,,2013-03-01 05:41:00,
2013-02-28 22:52:00,34.0,32.0,26.87,East,86,0.0,0.0,93,0.00,,,0.02,,2013-03-01 05:52:00,
2013-02-28 23:02:00,35.0,33.0,26.88,ESE,102,0.0,2.0,91,0.00,,,0.02,,2013-03-01 06:02:00,
2013-02-28 23:11:00,35.0,33.0,26.88,ESE,102,0.0,2.0,91,0.00,,,0.02,,2013-03-01 06:11:00,
2013-02-28 23:21:00,34.0,32.0,26.88,ENE,75,0.0,2.0,93,0.00,,,0.02,,2013-03-01 06:21:00,
2013-02-28 23:32:00,34.0,32.0,26.89,East,82,0.0,1.0,93,0.00,,,0.02,,2013-03-01 06:32:00,
2013-02-28 23:42:00,34.0,32.0,26.89,East,82,0.0,1.0,93,0.00,,,0.02,,2013-03-01 06:42:00,
2013-02-28 23:52:00,35.0,33.0,26.89,East,90,0.0,3.0,93,0.00,,,0.02,,2013-03-01 06:52:00,